Fargo, ND

4:13 AM CDT on October 14, 2019 (GMT -0500)
Hector International

Weather History for KFAR - August, 2019

Change the Weather History Date:

Tuesday, August 20, 2019

  Actual Average Record
Temperature  
Mean Temperature 64 °F 69 °F  
Max Temperature 75 °F 81 °F 104 °F (1976)
Min Temperature 53 °F 57 °F 34 °F (2004)
Degree Days  
Heating Degree Days 1 1  
Month to date heating degree days 11 16  
Since 1 June heating degree days 75 105  
Since 1 July heating degree days 17 32  
Cooling Degree Days 0 5  
Month to date cooling degree days 84 122  
Year to date cooling degree days 462 462  
Since 1 June cooling degree days 452 431  
Growing Degree Days 14 (Base 50)    
Moisture  
Dew Point 62 °F    
Average Humidity 81    
Maximum Humidity 96    
Minimum Humidity 51    
Precipitation  
Precipitation 0.05 in 0.09 in 1.81 in (1980)
Month to date precipitation 2.29 1.52  
Year to date precipitation 18.63 14.99  
Snow  
Snow 0.00 in 0.00 in 0.00 in ()
Month to date snowfall 0.0 0.0  
Since 1 June snowfall 0.0 0.0  
Since 1 July snowfall 0.0 0.0  
Snow Depth 0.00 in    
Sea Level Pressure  
Sea Level Pressure 29.94 in    
Wind  
Wind Speed 9 mph ()    
Max Wind Speed 22 mph    
Max Gust Speed 30 mph    
Visibility 10.0 miles    
Events Rain , Thunderstorm    
T = Trace of Precipitation, MM = Missing Value Source: Averaged Metar Reports

Daily Weather History Graph

Daily Weather History Graph

Search for Another Location

Airport or City:

Astronomy

Aug. 20, 2019 Rise Set
Actual Time 6:30 AM CDT 8:29 PM CDT
Civil Twilight 5:58 AM CDT 9:02 PM CDT
Nautical Twilight 5:17 AM CDT 9:42 PM CDT
Astronomical Twilight 4:33 AM CDT 10:26 PM CDT
Moon 11:00 PM CDT (8/20) 11:26 AM CDT (8/20)
Length of Visible Light 15h 03m
Length of Day
13h 58m
Waning Gibbous, 77% of the Moon is Illuminated
Aug 20
Waning Gibbous
Aug 23
Last Quarter
Aug 30
New
Sep 5
First Quarter
Sep 13
Full

Hourly Weather History & Observations

Time (CDT) Temp. Dew Point Humidity Pressure Visibility Wind Dir Wind Speed Gust Speed Precip Events Conditions
12:53 AM 72.0 °F 66.9 °F 84% 29.83 in 10.0 mi South 10.4 mph - N/A   Clear
1:53 AM 72.0 °F 66.9 °F 84% 29.85 in - SSE 8.1 mph - N/A   Mostly Cloudy
2:53 AM 71.1 °F 66.9 °F 87% 29.82 in 10.0 mi South 11.5 mph - N/A   Scattered Clouds
3:11 AM 71.1 °F 66.9 °F 87% 29.82 in 10.0 mi South 10.4 mph - N/A Thunderstorm Thunderstorm
3:32 AM 71.1 °F 68.0 °F 90% 29.80 in 10.0 mi SSE 13.8 mph - 0.00 in Rain , Thunderstorm Light Rain
3:53 AM 71.1 °F 68.0 °F 90% 29.79 in 10.0 mi South 15.0 mph - 0.00 in Rain Light Rain
4:53 AM 70.0 °F 66.0 °F 87% 29.83 in 10.0 mi North 11.5 mph 21.9 mph 0.01 in   Mostly Cloudy
5:12 AM 66.9 °F 64.0 °F 90% 29.83 in 10.0 mi ENE 9.2 mph - N/A   Overcast
5:53 AM 68.0 °F 64.9 °F 90% 29.79 in 10.0 mi East 3.5 mph - N/A   Overcast
6:00 AM 68.0 °F 64.9 °F 90% 29.81 in - NE 5.8 mph - N/A Thunderstorm Thunderstorm
6:14 AM 66.9 °F 64.0 °F 90% 29.85 in 10.0 mi NNE 9.2 mph 21.9 mph 0.00 in Rain , Thunderstorm Light Rain
6:23 AM 66.9 °F 64.9 °F 93% 29.84 in 10.0 mi Calm Calm - 0.03 in Rain , Thunderstorm Light Rain
6:30 AM 66.9 °F 64.9 °F 93% 29.83 in 10.0 mi NE 4.6 mph - 0.04 in Rain , Thunderstorm Light Thunderstorms and Rain
6:53 AM 66.0 °F 64.9 °F 96% 29.85 in 10.0 mi ENE 6.9 mph - 0.04 in   Overcast
7:32 AM 66.0 °F 64.0 °F 93% 29.84 in 10.0 mi SSE 6.9 mph - 0.00 in   Scattered Clouds
7:53 AM 66.9 °F 64.9 °F 93% 29.86 in 10.0 mi Calm Calm - 0.00 in   Mostly Cloudy
8:53 AM 69.1 °F 64.9 °F 87% 29.92 in 10.0 mi North 8.1 mph - N/A   Mostly Cloudy
9:37 AM 64.9 °F 61.0 °F 87% 29.97 in 10.0 mi NNW 19.6 mph 26.5 mph N/A   Mostly Cloudy
9:48 AM 62.6 °F 60.8 °F 94% 29.99 in 10.0 mi NW 16.1 mph - N/A   Overcast
9:53 AM 62.1 °F 59.0 °F 90% 29.99 in 10.0 mi NNW 18.4 mph - N/A   Overcast
10:53 AM 64.0 °F 60.1 °F 87% 30.01 in 10.0 mi NNW 15.0 mph - N/A   Overcast
11:30 AM 68.0 °F 62.1 °F 81% 30.02 in 10.0 mi North 13.8 mph 23.0 mph N/A   Mostly Cloudy
11:53 AM 71.1 °F 63.0 °F 75% 30.02 in 10.0 mi North 16.1 mph 24.2 mph N/A   Overcast
12:53 PM 72.0 °F 63.0 °F 73% 30.02 in - North 18.4 mph 24.2 mph N/A   Mostly Cloudy
1:53 PM 73.0 °F 61.0 °F 66% 30.04 in 10.0 mi North 16.1 mph - N/A   Scattered Clouds
2:53 PM 73.9 °F 60.1 °F 62% 30.05 in 10.0 mi North 13.8 mph 25.3 mph N/A   Partly Cloudy
3:53 PM 75.0 °F 57.9 °F 55% 30.04 in 10.0 mi NNW 16.1 mph - N/A   Clear
4:53 PM 73.9 °F 55.9 °F 53% 30.04 in 10.0 mi North 12.7 mph - N/A   Clear
5:53 PM 73.9 °F 55.0 °F 52% 30.04 in 10.0 mi NNW 15.0 mph - N/A   Clear
6:53 PM 72.0 °F 53.1 °F 51% 30.05 in 10.0 mi NNW 11.5 mph - N/A   Clear
7:53 PM 68.0 °F 54.0 °F 61% 30.05 in 10.0 mi NNW 6.9 mph - N/A   Clear
8:53 PM 62.1 °F 54.0 °F 75% 30.07 in 10.0 mi WNW 4.6 mph - N/A   Clear
9:53 PM 61.0 °F 54.0 °F 78% 30.09 in 10.0 mi WNW 3.5 mph - N/A   Clear
10:53 PM 59.0 °F 53.1 °F 81% 30.09 in 10.0 mi WSW 4.6 mph - N/A   Clear
11:53 PM 55.9 °F 52.0 °F 87% 30.10 in 10.0 mi West 5.8 mph - N/A   Clear